ACA260 CYUL-CYYZ

Flight info

Callsign ACA260
Flight time 0h 53m
Altitude 32000
Route BOBKI DCT MELTI DCT TORNI RAGID6
Aircraft B38M/M-SDE1FGHILORVWXY/HB1

Departure

Time 2026-05-04 02:08
Airport Montreal / Pierre Elliott Trudeau International Airport (CYUL)

Arrival

Time 2026-05-04 03:01
Airport Toronto Pearson International Airport (CYYZ)
Time Latitude Longitude Altitude Speed Heading
2026-05-04 01:47 45.45889 -73.74604 102 ft 0 kts 176°
2026-05-04 01:57 45.45897 -73.74604 109 ft 3 kts 174°
2026-05-04 01:58 45.45917 -73.74609 111 ft 3 kts 163°
2026-05-04 01:58 45.45935 -73.74620 110 ft 3 kts 143°
2026-05-04 01:58 45.45946 -73.74638 110 ft 3 kts 104°
2026-05-04 01:58 45.45947 -73.74653 110 ft 1 kts 75°
2026-05-04 02:01 45.45949 -73.74643 110 ft 3 kts 75°
2026-05-04 02:01 45.45960 -73.74586 112 ft 10 kts 72°
2026-05-04 02:01 45.45989 -73.74472 111 ft 14 kts 70°
2026-05-04 02:02 45.45976 -73.74344 109 ft 13 kts 120°
2026-05-04 02:02 45.46010 -73.74223 106 ft 16 kts 42°
2026-05-04 02:02 45.46094 -73.74114 108 ft 17 kts 42°
2026-05-04 02:02 45.46186 -73.73994 108 ft 19 kts 43°
2026-05-04 02:03 45.46284 -73.73866 110 ft 20 kts 41°
2026-05-04 02:03 45.46388 -73.73730 112 ft 20 kts 43°
2026-05-04 02:03 45.46489 -73.73598 113 ft 20 kts 42°
2026-05-04 02:03 45.46600 -73.73452 115 ft 22 kts 42°
2026-05-04 02:04 45.46719 -73.73296 114 ft 25 kts 42°
2026-05-04 02:04 45.46845 -73.73131 115 ft 25 kts 43°
2026-05-04 02:04 45.46972 -73.72964 121 ft 25 kts 43°
2026-05-04 02:04 45.47101 -73.72794 120 ft 26 kts 43°
2026-05-04 02:05 45.47236 -73.72621 120 ft 27 kts 43°
2026-05-04 02:05 45.47361 -73.72453 122 ft 24 kts 43°
2026-05-04 02:05 45.47489 -73.72285 124 ft 25 kts 42°
2026-05-04 02:05 45.47618 -73.72116 124 ft 26 kts 42°
2026-05-04 02:06 45.47742 -73.71956 127 ft 18 kts 42°
2026-05-04 02:06 45.47810 -73.71856 130 ft 12 kts 69°
2026-05-04 02:06 45.47787 -73.71769 127 ft 10 kts 133°
2026-05-04 02:06 45.47736 -73.71692 125 ft 13 kts 133°
2026-05-04 02:07 45.47677 -73.71648 126 ft 10 kts 196°
2026-05-04 02:07 45.47617 -73.71716 125 ft 14 kts 223°
2026-05-04 02:07 45.47406 -73.71993 122 ft 75 kts 223°
2026-05-04 02:07 45.46871 -73.72693 120 ft 131 kts 223°
2026-05-04 02:08 45.46089 -73.73710 266 ft 162 kts 224°
2026-05-04 02:08 45.45280 -73.74873 818 ft 171 kts 237°
2026-05-04 02:08 45.45040 -73.76516 1486 ft 175 kts 279°
2026-05-04 02:08 45.45461 -73.78176 2150 ft 188 kts 288°
2026-05-04 02:09 45.45779 -73.80034 2877 ft 198 kts 270°
2026-05-04 02:09 45.45731 -73.82070 3589 ft 214 kts 265°
2026-05-04 02:09 45.45597 -73.84220 4375 ft 225 kts 264°
2026-05-04 02:09 45.45438 -73.86537 5033 ft 243 kts 265°
2026-05-04 02:10 45.45274 -73.88996 5837 ft 252 kts 265°
2026-05-04 02:10 45.45110 -73.91492 6904 ft 252 kts 266°
2026-05-04 02:10 45.44947 -73.93992 7891 ft 254 kts 266°
2026-05-04 02:10 45.44785 -73.96487 8895 ft 255 kts 267°
2026-05-04 02:11 45.44674 -73.98186 9551 ft 257 kts 268°
2026-05-04 02:11 45.44507 -74.00722 10384 ft 262 kts 268°
2026-05-04 02:11 45.44271 -74.04320 10997 ft 285 kts 268°
2026-05-04 02:11 45.44144 -74.06252 11375 ft 294 kts 268°
2026-05-04 02:12 45.43949 -74.09196 12048 ft 301 kts 267°
2026-05-04 02:12 45.43751 -74.12183 12868 ft 305 kts 267°
2026-05-04 02:12 45.43551 -74.15186 13672 ft 309 kts 267°
2026-05-04 02:12 45.43347 -74.18249 14404 ft 313 kts 267°
2026-05-04 02:13 45.43138 -74.21354 15145 ft 316 kts 267°
2026-05-04 02:13 45.42925 -74.24520 15903 ft 320 kts 267°
2026-05-04 02:13 45.42712 -74.27672 16638 ft 323 kts 267°
2026-05-04 02:13 45.42495 -74.30870 17328 ft 327 kts 267°
2026-05-04 02:14 45.42273 -74.34112 18015 ft 331 kts 267°
2026-05-04 02:14 45.42048 -74.37404 18624 ft 334 kts 267°
2026-05-04 02:14 45.41824 -74.40684 19232 ft 337 kts 267°
2026-05-04 02:14 45.41476 -74.43999 19816 ft 342 kts 258°
2026-05-04 02:15 45.40870 -74.47325 20413 ft 345 kts 259°
2026-05-04 02:15 45.40299 -74.50655 20993 ft 348 kts 260°
2026-05-04 02:15 45.39737 -74.53990 21565 ft 351 kts 260°
2026-05-04 02:15 45.39173 -74.57385 22134 ft 353 kts 260°
2026-05-04 02:16 45.38607 -74.60810 22691 ft 356 kts 260°
2026-05-04 02:16 45.38034 -74.64280 23249 ft 359 kts 260°
2026-05-04 02:16 45.37462 -74.67741 23716 ft 362 kts 260°
2026-05-04 02:16 45.36882 -74.71245 24170 ft 365 kts 260°
2026-05-04 02:17 45.36302 -74.74741 24612 ft 367 kts 260°
2026-05-04 02:17 45.35714 -74.78279 25050 ft 370 kts 260°
2026-05-04 02:17 45.35119 -74.81856 25486 ft 372 kts 260°
2026-05-04 02:17 45.34516 -74.85469 25909 ft 374 kts 260°
2026-05-04 02:18 45.33909 -74.89034 26322 ft 377 kts 259°
2026-05-04 02:18 45.33284 -74.92662 26748 ft 379 kts 259°
2026-05-04 02:18 45.32652 -74.96338 27142 ft 382 kts 259°
2026-05-04 02:18 45.32021 -74.99995 27534 ft 384 kts 259°
2026-05-04 02:19 45.31383 -75.03693 27922 ft 386 kts 259°
2026-05-04 02:19 45.30742 -75.07395 28318 ft 388 kts 259°
2026-05-04 02:19 45.30092 -75.11149 28692 ft 391 kts 259°
2026-05-04 02:19 45.29438 -75.14911 29068 ft 393 kts 259°
2026-05-04 02:20 45.28782 -75.18678 29499 ft 393 kts 259°
2026-05-04 02:20 45.28128 -75.22427 29981 ft 392 kts 259°
2026-05-04 02:20 45.27471 -75.26185 30366 ft 392 kts 258°
2026-05-04 02:20 45.26814 -75.29936 30725 ft 392 kts 258°
2026-05-04 02:21 45.26150 -75.33717 31079 ft 392 kts 258°
2026-05-04 02:21 45.25492 -75.37453 31421 ft 392 kts 258°
2026-05-04 02:21 45.24827 -75.41228 31733 ft 393 kts 258°
2026-05-04 02:21 45.24164 -75.44979 31818 ft 394 kts 258°
2026-05-04 02:22 45.22825 -75.52534 31806 ft 391 kts 258°
2026-05-04 02:22 45.21498 -75.59987 31804 ft 391 kts 258°
2026-05-04 02:23 45.20163 -75.67458 31803 ft 391 kts 258°
2026-05-04 02:23 45.18820 -75.74944 31804 ft 390 kts 258°
2026-05-04 02:24 45.17476 -75.82398 31806 ft 390 kts 258°
2026-05-04 02:24 45.16128 -75.89849 31805 ft 390 kts 258°
2026-05-04 02:25 45.14779 -75.97278 31804 ft 390 kts 258°
2026-05-04 02:25 45.13417 -76.04743 31810 ft 390 kts 258°
2026-05-04 02:26 45.12062 -76.12145 31807 ft 390 kts 258°
2026-05-04 02:26 45.10692 -76.19605 31810 ft 390 kts 258°
2026-05-04 02:27 45.08621 -76.26661 31822 ft 394 kts 244°
2026-05-04 02:27 45.05981 -76.33456 31808 ft 394 kts 244°
2026-05-04 02:28 45.03302 -76.40260 31814 ft 394 kts 244°
2026-05-04 02:28 45.00636 -76.46998 31812 ft 394 kts 244°
2026-05-04 02:29 44.97957 -76.53751 31818 ft 394 kts 244°
2026-05-04 02:29 44.95270 -76.60507 31819 ft 394 kts 244°
2026-05-04 02:30 44.92582 -76.67253 31821 ft 394 kts 244°
2026-05-04 02:30 44.89906 -76.73950 31827 ft 394 kts 244°
2026-05-04 02:31 44.87209 -76.80682 31826 ft 393 kts 244°
2026-05-04 02:31 44.84508 -76.87409 31831 ft 394 kts 244°
2026-05-04 02:32 44.81813 -76.94109 31833 ft 394 kts 244°
2026-05-04 02:32 44.80433 -76.97535 31534 ft 403 kts 244°
2026-05-04 02:32 44.79049 -77.00967 31150 ft 408 kts 244°
2026-05-04 02:33 44.77644 -77.04450 30786 ft 408 kts 244°
2026-05-04 02:33 44.76238 -77.07929 30430 ft 406 kts 244°
2026-05-04 02:33 44.74844 -77.11374 30082 ft 403 kts 244°
2026-05-04 02:33 44.73476 -77.14751 29704 ft 400 kts 244°
2026-05-04 02:34 44.72097 -77.18148 29287 ft 397 kts 244°
2026-05-04 02:34 44.70727 -77.21522 28886 ft 394 kts 245°
2026-05-04 02:34 44.69389 -77.24814 28468 ft 391 kts 244°
2026-05-04 02:34 44.68039 -77.28129 28050 ft 389 kts 244°
2026-05-04 02:35 44.66695 -77.31430 27630 ft 386 kts 244°
2026-05-04 02:35 44.65359 -77.34701 27229 ft 384 kts 244°
2026-05-04 02:35 44.64044 -77.37922 26830 ft 381 kts 244°
2026-05-04 02:35 44.62718 -77.41163 26429 ft 379 kts 244°
2026-05-04 02:36 44.61401 -77.44380 26041 ft 377 kts 244°
2026-05-04 02:36 44.60104 -77.47545 25648 ft 375 kts 244°
2026-05-04 02:36 44.58812 -77.50694 25280 ft 373 kts 244°
2026-05-04 02:36 44.57505 -77.53879 24878 ft 383 kts 244°
2026-05-04 02:37 44.56160 -77.57149 24481 ft 388 kts 244°
2026-05-04 02:37 44.54807 -77.60434 24107 ft 391 kts 244°
2026-05-04 02:37 44.53443 -77.63745 23743 ft 390 kts 244°
2026-05-04 02:37 44.52084 -77.67039 23377 ft 388 kts 244°
2026-05-04 02:38 44.50726 -77.70320 22948 ft 386 kts 243°
2026-05-04 02:38 44.49392 -77.73539 22535 ft 384 kts 243°
2026-05-04 02:38 44.48050 -77.76779 22115 ft 381 kts 243°
2026-05-04 02:38 44.46716 -77.79993 21711 ft 379 kts 243°
2026-05-04 02:39 44.45404 -77.83151 21311 ft 376 kts 243°
2026-05-04 02:39 44.44089 -77.86309 20921 ft 374 kts 243°
2026-05-04 02:39 44.42791 -77.89426 20551 ft 372 kts 243°
2026-05-04 02:39 44.41493 -77.92542 20191 ft 369 kts 243°
2026-05-04 02:40 44.40198 -77.95645 19836 ft 367 kts 243°
2026-05-04 02:40 44.38906 -77.98736 19478 ft 365 kts 243°
2026-05-04 02:40 44.37632 -78.01783 19133 ft 363 kts 243°
2026-05-04 02:40 44.36359 -78.04824 18793 ft 361 kts 243°
2026-05-04 02:41 44.35092 -78.07845 18449 ft 359 kts 243°
2026-05-04 02:41 44.33823 -78.10864 18110 ft 357 kts 243°
2026-05-04 02:41 44.32585 -78.13809 17728 ft 355 kts 243°
2026-05-04 02:41 44.31331 -78.16787 17333 ft 352 kts 243°
2026-05-04 02:42 44.30102 -78.19705 16968 ft 350 kts 243°
2026-05-04 02:42 44.28863 -78.22640 16596 ft 348 kts 243°
2026-05-04 02:42 44.27639 -78.25539 16230 ft 345 kts 243°
2026-05-04 02:42 44.26419 -78.28426 15866 ft 343 kts 243°
2026-05-04 02:43 44.25220 -78.31260 15516 ft 341 kts 243°
2026-05-04 02:43 44.24055 -78.34010 15175 ft 339 kts 243°
2026-05-04 02:43 44.22828 -78.36905 14820 ft 337 kts 243°
2026-05-04 02:43 44.21624 -78.39741 14472 ft 335 kts 243°
2026-05-04 02:44 44.20446 -78.42515 14133 ft 334 kts 243°
2026-05-04 02:44 44.19662 -78.44357 13914 ft 332 kts 243°
2026-05-04 02:44 44.18090 -78.48053 13436 ft 330 kts 243°
2026-05-04 02:44 44.16930 -78.50774 13103 ft 328 kts 243°
2026-05-04 02:45 44.16142 -78.52622 12897 ft 327 kts 243°
2026-05-04 02:45 44.14988 -78.55328 12571 ft 325 kts 243°
2026-05-04 02:45 44.13473 -78.58876 12157 ft 318 kts 243°
2026-05-04 02:45 44.12713 -78.60652 11955 ft 314 kts 243°
2026-05-04 02:46 44.11616 -78.63215 11644 ft 306 kts 243°
2026-05-04 02:46 44.10552 -78.65700 11351 ft 294 kts 243°
2026-05-04 02:46 44.09512 -78.68127 11076 ft 283 kts 243°
2026-05-04 02:46 44.08520 -78.70437 10810 ft 273 kts 243°
2026-05-04 02:47 44.07569 -78.72653 10550 ft 265 kts 243°
2026-05-04 02:47 44.06635 -78.74828 10288 ft 262 kts 243°
2026-05-04 02:47 44.05699 -78.77005 10032 ft 260 kts 243°
2026-05-04 02:47 44.04771 -78.79163 9790 ft 258 kts 243°
2026-05-04 02:48 44.03758 -78.81199 9527 ft 260 kts 233°
2026-05-04 02:48 44.02516 -78.83055 9265 ft 258 kts 234°
2026-05-04 02:48 44.01608 -78.85103 8993 ft 249 kts 251°
2026-05-04 02:48 44.00961 -78.87355 8742 ft 248 kts 251°
2026-05-04 02:49 44.00304 -78.89554 8497 ft 247 kts 250°
2026-05-04 02:49 43.99641 -78.91748 8239 ft 246 kts 250°
2026-05-04 02:49 43.98988 -78.93886 7992 ft 245 kts 250°
2026-05-04 02:49 43.98311 -78.96094 7744 ft 243 kts 250°
2026-05-04 02:50 43.97650 -78.98242 7495 ft 242 kts 250°
2026-05-04 02:50 43.96987 -79.00388 7273 ft 241 kts 250°
2026-05-04 02:50 43.96361 -79.02416 7065 ft 239 kts 250°
2026-05-04 02:50 43.95703 -79.04542 6855 ft 238 kts 249°
2026-05-04 02:51 43.95051 -79.06645 6632 ft 237 kts 249°
2026-05-04 02:51 43.94402 -79.08737 6421 ft 236 kts 249°
2026-05-04 02:51 43.93756 -79.10817 6203 ft 234 kts 249°
2026-05-04 02:51 43.93110 -79.12897 5988 ft 234 kts 249°
2026-05-04 02:52 43.92466 -79.14971 5753 ft 230 kts 249°
2026-05-04 02:52 43.91855 -79.16933 5534 ft 218 kts 249°
2026-05-04 02:52 43.91274 -79.18800 5335 ft 204 kts 249°
2026-05-04 02:52 43.90733 -79.20539 5155 ft 189 kts 250°
2026-05-04 02:53 43.90218 -79.22190 4948 ft 186 kts 250°
2026-05-04 02:53 43.89721 -79.23782 4744 ft 185 kts 249°
2026-05-04 02:53 43.89215 -79.25401 4538 ft 185 kts 249°
2026-05-04 02:53 43.88701 -79.27048 4317 ft 184 kts 249°
2026-05-04 02:54 43.88138 -79.28627 4084 ft 178 kts 243°
2026-05-04 02:54 43.87475 -79.30023 3894 ft 170 kts 239°
2026-05-04 02:54 43.86777 -79.31287 3723 ft 159 kts 237°
2026-05-04 02:54 43.86079 -79.32444 3564 ft 155 kts 236°
2026-05-04 02:55 43.84652 -79.34657 3273 ft 155 kts 233°
2026-05-04 02:55 43.83920 -79.35754 3135 ft 155 kts 233°
2026-05-04 02:55 43.83169 -79.36869 3034 ft 160 kts 232°
2026-05-04 02:56 43.82406 -79.37995 3014 ft 163 kts 232°
2026-05-04 02:56 43.81621 -79.39148 3015 ft 164 kts 232°
2026-05-04 02:56 43.80841 -79.40292 3022 ft 163 kts 232°
2026-05-04 02:56 43.80061 -79.41436 3007 ft 163 kts 232°
2026-05-04 02:57 43.79283 -79.42573 3003 ft 164 kts 232°
2026-05-04 02:57 43.78496 -79.43724 3014 ft 163 kts 232°
2026-05-04 02:57 43.77717 -79.44862 3010 ft 163 kts 232°
2026-05-04 02:57 43.76941 -79.45997 2995 ft 162 kts 232°
2026-05-04 02:58 43.76161 -79.47139 2990 ft 164 kts 232°
2026-05-04 02:58 43.75401 -79.48245 3009 ft 153 kts 232°
2026-05-04 02:58 43.74676 -79.49306 3002 ft 150 kts 232°
2026-05-04 02:58 43.73974 -79.50336 2637 ft 142 kts 232°
2026-05-04 02:59 43.73326 -79.51286 2272 ft 132 kts 232°
2026-05-04 02:59 43.72714 -79.52158 2014 ft 123 kts 230°
2026-05-04 02:59 43.72122 -79.53015 1809 ft 122 kts 232°
2026-05-04 02:59 43.71553 -79.53873 1697 ft 123 kts 230°
2026-05-04 03:00 43.70954 -79.54737 1542 ft 125 kts 230°
2026-05-04 03:00 43.70354 -79.55623 1367 ft 131 kts 229°
2026-05-04 03:00 43.69703 -79.56581 1188 ft 139 kts 227°
2026-05-04 03:00 43.69025 -79.57546 1022 ft 141 kts 227°
2026-05-04 03:01 43.68347 -79.58542 828 ft 142 kts 227°
2026-05-04 03:01 43.67665 -79.59528 642 ft 142 kts 227°
2026-05-04 03:01 43.67011 -79.60484 554 ft 126 kts 226°
2026-05-04 03:01 43.66529 -79.61182 553 ft 45 kts 228°
2026-05-04 03:02 43.66426 -79.61414 543 ft 13 kts 252°
2026-05-04 03:02 43.66395 -79.61544 543 ft 15 kts 252°
2026-05-04 03:02 43.66376 -79.61672 544 ft 13 kts 283°
2026-05-04 03:02 43.66426 -79.61758 546 ft 12 kts 317°
2026-05-04 03:03 43.66491 -79.61842 545 ft 14 kts 315°
2026-05-04 03:03 43.66554 -79.61878 543 ft 8 kts 339°
2026-05-04 03:03 43.66619 -79.61912 542 ft 11 kts 11°
2026-05-04 03:03 43.66684 -79.61833 541 ft 14 kts 47°
2026-05-04 03:04 43.66755 -79.61729 544 ft 14 kts 46°
2026-05-04 03:04 43.66823 -79.61630 547 ft 14 kts 46°
2026-05-04 03:04 43.66894 -79.61528 549 ft 14 kts 46°
2026-05-04 03:04 43.66957 -79.61434 556 ft 13 kts 47°
2026-05-04 03:05 43.67025 -79.61337 559 ft 16 kts 46°
2026-05-04 03:05 43.67110 -79.61212 558 ft 14 kts 46°
2026-05-04 03:05 43.67180 -79.61152 551 ft 12 kts 349°
2026-05-04 03:05 43.67247 -79.61225 553 ft 13 kts 316°
2026-05-04 03:06 43.67317 -79.61317 553 ft 15 kts 317°
2026-05-04 03:06 43.67395 -79.61417 555 ft 15 kts 317°
2026-05-04 03:06 43.67473 -79.61517 558 ft 16 kts 317°
2026-05-04 03:06 43.67545 -79.61612 559 ft 11 kts 317°
2026-05-04 03:07 43.67604 -79.61675 561 ft 10 kts 348°
2026-05-04 03:07 43.67668 -79.61631 568 ft 12 kts 45°
2026-05-04 03:07 43.67724 -79.61549 566 ft 12 kts 47°
2026-05-04 03:07 43.67784 -79.61462 568 ft 13 kts 46°
2026-05-04 03:08 43.67850 -79.61383 568 ft 11 kts 24°
2026-05-04 03:08 43.67921 -79.61356 576 ft 11 kts
2026-05-04 03:08 43.67977 -79.61340 570 ft 6 kts 31°
2026-05-04 03:08 43.68000 -79.61320 572 ft 2 kts 32°
2026-05-04 03:09 43.68003 -79.61318 571 ft 0 kts 31°